GW6326 Weather Reports


time (UTC)temp
C
wind
direction
speed
KPH
gust
KPH
rain 1hr
cm
rain 24hr
cm
rain mn
cm
humidity
%
barometer
mb
20260906104607 21 85 3.2 3.2 0.00 0.00 0.00 97 1022.0
20260906104101 21 94 0.0 0.0 0.00 0.00 0.00 96 1022.0
20260906103559 21 89 1.6 1.6 0.00 0.00 0.00 96 1022.0
20260906103055 21 99 6.4 8.0 0.00 0.00 0.00 96 1021.8
20260906102554 21 103 1.6 3.2 0.00 0.00 0.00 96 1021.8
20260906102050 21 82 3.2 4.8 0.00 0.00 0.00 95 1021.9
20260906101544 21 93 4.8 4.8 0.00 0.00 0.00 95 1021.7
20260906101039 21 109 3.2 3.2 0.00 0.00 0.00 95 1021.5
20260906100535 21 103 1.6 3.2 0.00 0.00 0.00 95 1021.7
20260906100035 21 111 1.6 1.6 0.00 0.00 0.00 95 1021.7
20260906095530 21 109 1.6 1.6 0.00 0.00 0.00 96 1021.8
20260906095025 21 58 4.8 4.8 0.00 0.00 0.00 95 1021.7
20260906094524 21 99 1.6 1.6 0.00 0.00 0.00 95 1021.3
20260906094020 21 67 3.2 3.2 0.00 0.00 0.00 95 1021.8
20260906093516 21 94 6.4 8.0 0.00 0.00 0.00 95 1021.5
20260906093010 21 87 4.8 8.0 0.00 0.00 0.00 95 1021.6
20260906092505 21 94 3.2 4.8 0.00 0.00 0.00 95 1021.7
20260906092000 21 100 1.6 3.2 0.00 0.00 0.00 95 1021.7
20260906091456 21 106 1.6 1.6 0.00 0.00 0.00 95 1021.5
20260906090953 21 70 0.0 0.0 0.00 0.00 0.00 95 1021.6
20260906090448 21 93 1.6 1.6 0.00 0.00 0.00 95 1021.4
20260906085947 21 84 1.6 1.6 0.00 0.00 0.00 95 1021.5
20260906085446 21 63 3.2 3.2 0.00 0.00 0.00 95 1021.5
20260906084946 21 76 3.2 3.2 0.00 0.00 0.00 95 1021.5
20260906084441 21 77 3.2 3.2 0.00 0.00 0.00 95 1021.5
20260906083939 21 102 1.6 1.6 0.00 0.00 0.00 95 1021.5
20260906083436 21 101 0.0 1.6 0.00 0.00 0.00 96 1021.6
20260906082934 21 94 0.0 0.0 0.00 0.00 0.00 96 1021.7
20260906082430 21 76 1.6 1.6 0.00 0.00 0.00 95 1021.8
20260906081926 21 52 3.2 4.8 0.00 0.00 0.00 95 1021.7
20260906081421 21 81 0.0 1.6 0.00 0.00 0.00 94 1021.7
20260906080917 21 97 3.2 3.2 0.00 0.00 0.00 95 1021.7
20260906080414 21 95 1.6 1.6 0.00 0.00 0.00 95 1021.6
20260906075913 22 97 3.2 3.2 0.00 0.00 0.00 95 1021.8
20260906075408 22 99 1.6 1.6 0.00 0.00 0.00 96 1022.0
20260906074903 22 119 1.6 1.6 0.00 0.00 0.00 96 1021.7
20260906074402 22 103 1.6 1.6 0.00 0.00 0.00 97 1021.8
20260906073901 22 45 4.8 4.8 0.00 0.00 0.00 97 1021.7
20260906073356 22 80 3.2 3.2 0.00 0.00 0.00 97 1021.8
20260906072853 22 83 1.6 1.6 0.00 0.00 0.00 97 1021.7
20260906072348 22 75 3.2 3.2 0.00 0.00 0.00 97 1021.7
20260906071844 22 81 1.6 1.6 0.00 0.00 0.00 97 1021.7
20260906071339 22 82 0.0 1.6 0.00 0.00 0.00 97 1021.7
20260906070836 22 82 0.0 0.0 0.00 0.00 0.00 97 1021.7
20260906070331 22 68 1.6 1.6 0.00 0.00 0.00 97 1021.6
20260906065827 22 83 3.2 3.2 0.00 0.00 0.00 96 1021.7
20260906065321 22 88 3.2 3.2 0.00 0.00 0.00 96 1021.5
20260906064817 22 92 1.6 3.2 0.00 0.00 0.00 96 1021.7
20260906064313 22 88 1.6 3.2 0.00 0.00 0.00 96 1021.9
20260906063812 22 61 3.2 4.8 0.00 0.00 0.00 96 1021.8
20260906063308 22 57 4.8 4.8 0.00 0.00 0.00 95 1021.7
20260906062803 22 50 3.2 3.2 0.00 0.00 0.00 95 1021.7
20260906062305 22 47 4.8 4.8 0.00 0.00 0.00 95 1021.7
20260906061758 22 41 4.8 4.8 0.00 0.00 0.00 95 1021.7
20260906061254 22 36 8.0 11.3 0.00 0.00 0.00 95 1021.8
20260906060749 22 54 8.0 9.7 0.00 0.00 0.00 95 1021.5
20260906060247 22 49 4.8 4.8 0.00 0.00 0.00 95 1021.8
20260906055742 22 66 1.6 4.8 0.00 0.00 0.00 95 1021.6
20260906055237 22 39 6.4 8.0 0.00 0.00 0.00 95 1021.5
20260906054732 22 93 4.8 8.0 0.00 0.00 0.00 95 1021.5
20260906054227 22 31 9.7 11.3 0.00 0.00 0.00 96 1021.3
20260906053724 22 73 1.6 1.6 0.00 0.00 0.00 96 1021.4
20260906053219 22 97 1.6 1.6 0.00 0.00 0.00 96 1020.9
20260906052714 22 97 3.2 3.2 0.00 0.00 0.00 96 1021.1
20260906052210 22 71 4.8 4.8 0.00 0.00 0.00 96 1021.3
20260906051707 22 36 4.8 8.0 0.00 0.00 0.00 97 1021.0
20260906051207 22 87 3.2 3.2 0.00 0.00 0.00 97 1020.9
20260906050702 22 69 4.8 8.0 0.00 0.00 0.00 97 1021.3
20260906050157 22 71 6.4 9.7 0.00 0.00 0.00 97 1020.8
20260906045655 22 77 4.8 8.0 0.00 0.00 0.00 97 1020.7
20260906045151 22 55 3.2 4.8 0.00 0.00 0.00 97 1020.7
20260906044647 22 66 4.8 4.8 0.00 0.00 0.00 97 1020.7
20260906044142 22 58 3.2 3.2 0.00 0.00 0.00 97 1020.8
20260906043638 22 56 9.7 14.5 0.00 0.00 0.00 97 1020.8
20260906043133 22 56 3.2 3.2 0.00 0.00 0.00 97 1020.7
20260906042632 22 87 6.4 8.0 0.00 0.00 0.00 97 1020.7
20260906042127 22 41 9.7 17.7 0.00 0.00 0.00 96 1020.4
20260906041624 22 21 6.4 8.0 0.00 0.00 0.00 97 1020.7
20260906041123 22 21 8.0 9.7 0.00 0.00 0.00 97 1020.5
20260906040619 22 38 11.3 12.9 0.00 0.00 0.00 97 1020.4
20260906040114 22 48 8.0 12.9 0.00 0.00 0.00 97 1020.6
20260906035610 22 99 6.4 8.0 0.00 0.00 0.00 97 1020.2
20260906035105 22 81 4.8 9.7 0.00 0.00 0.00 97 1020.3
20260906034605 22 51 8.0 9.7 0.00 0.00 0.00 97 1020.2
20260906034100 22 65 6.4 8.0 0.00 0.00 0.00 97 1020.3
20260906033556 22 50 9.7 12.9 0.00 0.00 0.00 97 1020.4
20260906033051 22 64 12.9 14.5 0.00 0.00 0.00 97 1020.4
20260906032547 22 53 4.8 8.0 0.00 0.00 0.00 97 1020.1
20260906032041 22 51 9.7 12.9 0.00 0.00 0.00 97 1020.3
20260906031537 22 23 8.0 9.7 0.00 0.00 0.00 97 1020.2
20260906031033 22 16 6.4 9.7 0.00 0.00 0.00 97 1020.1
20260906030532 22 33 9.7 12.9 0.00 0.00 0.00 97 1020.2
20260906030032 22 20 6.4 9.7 0.00 0.00 0.00 97 1020.4
20260906025532 22 9 4.8 4.8 0.00 0.00 0.00 97 1020.4
20260906025030 22 55 4.8 4.8 0.00 0.00 0.00 97 1020.2
20260906024526 22 36 8.0 9.7 0.00 0.00 0.00 97 1020.4
20260906024025 22 74 3.2 4.8 0.00 0.00 0.00 96 1020.4
20260906023522 22 46 12.9 17.7 0.00 0.00 0.00 96 1020.5
20260906023016 22 82 3.2 3.2 0.00 0.00 0.00 95 1020.4
20260906022512 22 32 6.4 8.0 0.00 0.00 0.00 94 1020.6
20260906022007 22 34 6.4 11.3 0.00 0.00 0.00 94 1020.4
20260906021502 22 57 8.0 9.7 0.00 0.00 0.00 94 1020.6
20260906020956 22 46 4.8 9.7 0.00 0.00 0.00 94 1020.6
20260906020450 22 41 8.0 16.1 0.00 0.00 0.00 94 1020.6
20260906015950 22 54 4.8 8.0 0.00 0.00 0.00 94 1020.7
20260906015449 22 48 4.8 4.8 0.00 0.00 0.00 94 1020.8
20260906014949 22 13 11.3 12.9 0.00 0.00 0.00 94 1020.8
20260906014449 22 30 8.0 9.7 0.00 0.00 0.00 95 1020.5
20260906013946 22 43 9.7 12.9 0.00 0.00 0.00 95 1020.6
20260906013441 22 22 11.3 12.9 0.00 0.00 0.00 95 1020.5
20260906012937 22 28 11.3 12.9 0.00 0.00 0.00 95 1020.2
20260906012437 22 347 12.9 16.1 0.00 0.00 0.00 95 1020.3
20260906011936 22 31 16.1 24.1 0.00 0.00 0.00 95 1020.2
20260906011432 22 35 6.4 8.0 0.00 0.00 0.00 94 1020.1
20260906010927 22 354 8.0 12.9 0.00 0.00 0.00 94 1020.0
20260906010422 22 24 11.3 14.5 0.00 0.00 0.00 94 1020.0
20260906005918 22 5 6.4 8.0 0.00 0.00 0.00 94 1019.9
20260906005417 22 33 8.0 9.7 0.00 0.00 0.00 94 1019.7
20260906004916 22 23 11.3 16.1 0.00 0.00 0.00 94 1019.5
20260906004410 22 339 11.3 16.1 0.00 0.00 0.00 94 1019.7
20260906003906 22 348 9.7 11.3 0.00 0.00 0.00 93 1019.7
20260906003401 22 38 14.5 17.7 0.00 0.00 0.00 93 1019.5
20260906002857 22 27 14.5 16.1 0.00 0.00 0.00 93 1019.6
20260906002356 22 350 8.0 9.7 0.00 0.00 0.00 93 1019.7
20260906001852 22 345 11.3 14.5 0.00 0.00 0.00 93 1019.8
20260906001347 22 3 14.5 20.9 0.00 0.00 0.00 93 1019.7
20260906000842 22 43 17.7 20.9 0.00 0.00 0.00 93 1019.6
20260906000342 23 49 6.4 9.7 0.00 0.00 0.00 94 1019.6
20260905235842 23 48 9.7 12.9 0.00 0.00 0.00 93 1019.7
20260905235337 23 352 14.5 17.7 0.00 0.00 0.00 92 1019.7
20260905234832 23 19 11.3 12.9 0.00 0.00 0.00 92 1019.6
20260905234327 23 9 12.9 16.1 0.00 0.00 0.00 92 1019.6
20260905233823 23 6 11.3 12.9 0.00 0.00 0.00 91 1019.3
20260905233317 23 13 8.0 12.9 0.00 0.00 0.00 91 1019.5
20260905232817 23 36 16.1 17.7 0.00 0.00 0.00 90 1019.4
20260905232313 23 37 14.5 16.1 0.00 0.00 0.00 89 1019.5
20260905231808 24 41 8.0 9.7 0.00 0.00 0.00 89 1019.3
20260905231303 24 1 14.5 17.7 0.00 0.00 0.00 89 1019.2
20260905230800 24 39 9.7 14.5 0.00 0.00 0.00 89 1019.3
20260905230257 24 50 9.7 14.5 0.00 0.00 0.00 90 1019.2
20260905225757 24 47 16.1 20.9 0.00 0.00 0.00 89 1019.3
20260905225252 25 355 17.7 22.5 0.00 0.00 0.00 89 1019.5
20260905224751 24 21 17.7 20.9 0.00 0.00 0.00 90 1019.4
20260905224247 24 38 8.0 9.7 0.00 0.00 0.00 91 1019.3
20260905223743 23 28 8.0 12.9 0.00 0.00 0.00 91 1019.4
20260905223240 23 62 11.3 12.9 0.00 0.00 0.00 91 1019.3
20260905222735 24 5 19.3 24.1 0.00 0.00 0.00 91 1019.5
20260905222234 23 13 12.9 12.9 0.00 0.00 0.00 92 1019.7
20260905221730 23 27 6.4 9.7 0.00 0.00 0.00 92 1019.4
20260905221227 24 11 16.1 17.7 0.00 0.00 0.00 92 1019.3
20260905220722 24 3 11.3 14.5 0.00 0.00 0.00 91 1019.1
20260905220218 24 13 9.7 12.9 0.00 0.00 0.00 91 1019.2
20260905215718 24 25 8.0 9.7 0.00 0.00 0.00 90 1019.5
20260905215214 24 359 12.9 16.1 0.00 0.00 0.00 89 1019.2
20260905214709 24 37 11.3 12.9 0.00 0.00 0.00 89 1019.3
20260905214204 24 41 16.1 17.7 0.00 0.00 0.00 89 1019.3
20260905213700 25 4 9.7 12.9 0.00 0.00 0.00 89 1019.3
20260905213155 25 354 14.5 20.9 0.00 0.00 0.00 88 1019.1
20260905212650 25 6 14.5 20.9 0.00 0.00 0.00 89 1019.2
20260905212150 25 27 12.9 16.1 0.00 0.00 0.00 89 1019.0
20260905211644 25 39 12.9 16.1 0.00 0.00 0.00 88 1019.0
20260905211140 25 27 9.7 14.5 0.00 0.00 0.00 88 1019.2
20260905210637 26 9 11.3 12.9 0.00 0.00 0.00 87 1019.1
20260905210136 25 26 11.3 14.5 0.00 0.00 0.00 88 1019.0
20260905205635 26 7 14.5 17.7 0.00 0.00 0.00 87 1019.0
20260905205130 25 341 16.1 20.9 0.00 0.00 0.00 88 1018.9
20260905204629 26 44 14.5 20.9 0.00 0.00 0.00 86 1018.9
20260905204125 26 27 14.5 20.9 0.00 0.00 0.00 87 1019.0
20260905203625 26 18 14.5 17.7 0.00 0.00 0.00 88 1019.2
20260905203120 26 29 6.4 8.0 0.00 0.00 0.00 88 1019.0
20260905202616 26 21 17.7 22.5 0.00 0.00 0.00 85 1018.9
20260905202111 26 332 12.9 16.1 0.00 0.00 0.00 87 1019.1
20260905201607 26 15 12.9 17.7 0.00 0.00 0.00 85 1019.1
20260905201106 27 8 12.9 20.9 0.00 0.00 0.00 85 1019.1
20260905200602 26 9 8.0 12.9 0.00 0.00 0.00 87 1019.2
20260905200056 27 2 16.1 20.9 0.00 0.00 0.00 85 1019.3
20260905195555 26 25 17.7 22.5 0.00 0.00 0.00 84 1019.1
20260905195051 27 341 14.5 16.1 0.00 0.00 0.00 84 1019.0
20260905194550 27 4 17.7 20.9 0.00 0.00 0.00 83 1019.0
20260905194050 26 359 16.1 17.7 0.00 0.00 0.00 83 1019.0
20260905193545 27 35 11.3 11.3 0.00 0.00 0.00 85 1019.2
20260905193040 27 332 11.3 14.5 0.00 0.00 0.00 86 1019.1
20260905192535 27 357 17.7 24.1 0.00 0.00 0.00 84 1019.3
20260905192032 28 11 12.9 16.1 0.00 0.00 0.00 84 1019.2
20260905191530 27 349 9.7 11.3 0.00 0.00 0.00 82 1019.2
20260905191029 28 31 8.0 9.7 0.00 0.00 0.00 82 1019.0
20260905190528 27 39 11.3 12.9 0.00 0.00 0.00 82 1019.3
20260905190028 28 72 11.3 16.1 0.00 0.00 0.00 82 1018.9
20260905185527 28 4 12.9 16.1 0.00 0.00 0.00 81 1019.3
20260905185026 28 2 14.5 16.1 0.00 0.00 0.00 82 1019.2
20260905184521 28 41 14.5 16.1 0.00 0.00 0.00 82 1019.0
20260905184020 28 4 11.3 12.9 0.00 0.00 0.00 83 1019.0
20260905183519 28 25 14.5 20.9 0.00 0.00 0.00 82 1019.3
20260905183015 28 342 17.7 20.9 0.00 0.00 0.00 82 1019.1
20260905182514 28 42 12.9 16.1 0.00 0.00 0.00 81 1019.1
20260905182009 28 37 12.9 17.7 0.00 0.00 0.00 82 1018.9
20260905181510 28 10 11.3 14.5 0.00 0.00 0.00 80 1019.0
20260905181009 28 9 12.9 16.1 0.00 0.00 0.00 80 1018.7
20260905180504 28 28 14.5 20.9 0.00 0.00 0.00 81 1019.0
20260905175959 28 16 11.3 12.9 0.00 0.00 0.00 81 1019.0
20260905175458 28 49 4.8 8.0 0.00 0.00 0.00 82 1019.0
20260905174954 28 22 11.3 14.5 0.00 0.00 0.00 82 1019.0
20260905174449 28 29 11.3 12.9 0.00 0.00 0.00 81 1018.9
20260905173945 28 83 6.4 11.3 0.00 0.00 0.00 83 1019.0
20260905173441 28 355 12.9 16.1 0.00 0.00 0.00 82 1019.0
20260905172936 28 7 11.3 14.5 0.00 0.00 0.00 83 1019.2
20260905172434 28 348 11.3 14.5 0.00 0.00 0.00 82 1018.9
20260905171930 28 19 16.1 17.7 0.00 0.00 0.00 83 1019.0
20260905171426 28 37 6.4 9.7 0.00 0.00 0.00 85 1019.0
20260905170923 28 3 11.3 12.9 0.00 0.00 0.00 85 1019.0
20260905170418 28 358 9.7 11.3 0.00 0.00 0.00 85 1019.1
20260905165917 28 25 6.4 8.0 0.00 0.00 0.00 82 1019.4
20260905165413 28 24 8.0 9.7 0.00 0.00 0.00 85 1019.2
20260905164908 28 68 8.0 12.9 0.00 0.00 0.00 85 1019.2
20260905164402 27 12 12.9 14.5 0.00 0.00 0.00 85 1019.2
20260905163858 28 7 9.7 11.3 0.00 0.00 0.00 87 1019.1
20260905163354 27 350 9.7 12.9 0.00 0.00 0.00 88 1019.2
20260905162850 28 29 4.8 8.0 0.00 0.00 0.00 88 1019.4
20260905162349 28 23 12.9 17.7 0.00 0.00 0.00 88 1019.3
20260905161844 28 53 4.8 4.8 0.00 0.00 0.00 89 1019.2
20260905161344 28 48 4.8 4.8 0.00 0.00 0.00 89 1019.1
20260905160842 28 12 9.7 12.9 0.00 0.00 0.00 88 1019.3
20260905160336 27 351 6.4 8.0 0.00 0.00 0.00 90 1019.3
20260905155831 27 20 8.0 9.7 0.00 0.00 0.00 90 1019.2
20260905155331 27 44 6.4 8.0 0.00 0.00 0.00 89 1019.1
20260905154830 27 41 8.0 9.7 0.00 0.00 0.00 89 1019.0
20260905154326 27 24 6.4 8.0 0.00 0.00 0.00 89 1018.9
20260905153821 27 338 9.7 12.9 0.00 0.00 0.00 89 1019.1
20260905153318 27 358 9.7 14.5 0.00 0.00 0.00 89 1019.2
20260905152817 27 14 12.9 14.5 0.00 0.00 0.00 90 1019.1
20260905152316 27 45 6.4 8.0 0.00 0.00 0.00 91 1019.1
20260905151812 27 54 9.7 12.9 0.00 0.00 0.00 92 1019.0
20260905151307 27 20 14.5 17.7 0.00 0.00 0.00 91 1019.0
20260905150808 27 23 8.0 14.5 0.00 0.00 0.00 90 1018.7
20260905150307 27 349 11.3 12.9 0.00 0.00 0.00 89 1018.8
20260905145805 27 6 9.7 11.3 0.00 0.00 0.00 91 1018.8
20260905145259 27 44 6.4 8.0 0.00 0.00 0.00 91 1018.5
20260905144757 28 32 8.0 9.7 0.00 0.00 0.00 90 1018.5
20260905144254 27 65 1.6 3.2 0.00 0.00 0.00 93 1018.4
20260905143752 27 34 9.7 11.3 0.00 0.00 0.00 93 1018.2
20260905143247 26 12 9.7 11.3 0.00 0.00 0.00 93 1018.3
20260905142745 27 27 8.0 11.3 0.00 0.00 0.00 92 1018.2
20260905142240 27 15 8.0 8.0 0.00 0.00 0.00 93 1018.4
20260905141736 27 349 11.3 11.3 0.00 0.00 0.00 91 1018.2
20260905141232 27 20 4.8 4.8 0.00 0.00 0.00 93 1018.3
20260905140727 27 69 4.8 4.8 0.00 0.00 0.00 92 1018.4
20260905140221 27 37 1.6 1.6 0.00 0.00 0.00 92 1018.5
20260905135720 27 43 6.4 8.0 0.00 0.00 0.00 94 1018.8
20260905135217 26 16 4.8 4.8 0.00 0.00 0.00 96 1018.6
20260905134716 26 36 4.8 4.8 0.00 0.00 0.00 96 1018.7
20260905134215 26 38 4.8 4.8 0.00 0.00 0.00 96 1018.7
20260905133711 26 34 4.8 8.0 0.00 0.00 0.00 96 1018.7
20260905133211 26 39 8.0 9.7 0.00 0.00 0.00 96 1018.7
20260905132710 26 27 8.0 9.7 0.00 0.00 0.00 97 1018.6
20260905132206 25 14 6.4 9.7 0.00 0.00 0.00 99 1018.5
20260905131701 25 21 4.8 4.8 0.00 0.00 0.00 99 1018.3
20260905131156 25 353 6.4 8.0 0.00 0.00 0.00 99 1018.5
20260905130655 25 25 6.4 8.0 0.00 0.00 0.00 99 1018.2
20260905130150 25 55 3.2 3.2 0.00 0.00 0.00 99 1018.2
20260905125650 25 78 1.6 3.2 0.00 0.00 0.00 99 1018.2
20260905125146 25 94 3.2 3.2 0.00 0.00 0.00 99 1018.2
20260905124641 25 95 1.6 1.6 0.00 0.00 0.00 99 1018.2
20260905124138 25 95 0.0 1.6 0.00 0.00 0.00 99 1018.1
20260905123633 25 95 1.6 1.6 0.00 0.00 0.00 99 1018.0
20260905123130 24 95 0.0 0.0 0.00 0.00 0.00 99 1018.0
20260905122629 24 95 1.6 1.6 0.00 0.00 0.00 99 1018.0
20260905122124 23 95 0.0 1.6 0.00 0.00 0.00 99 1017.8
20260905121619 23 95 0.0 0.0 0.00 0.00 0.00 99 1017.7
20260905121114 23 95 0.0 0.0 0.00 0.00 0.00 99 1017.7
20260905120613 23 95 0.0 0.0 0.00 0.00 0.00 99 1017.8
20260905120109 23 95 0.0 0.0 0.00 0.00 0.00 99 1017.5
20260905115607 23 95 0.0 0.0 0.00 0.00 0.00 99 1017.4
20260905115102 23 95 3.2 3.2 0.00 0.00 0.00 99 1017.3
20260905114602 23 95 1.6 3.2 0.00 0.00 0.00 99 1017.3
20260905114101 23 95 1.6 1.6 0.00 0.00 0.00 99 1017.3
20260905113556 23 95 1.6 1.6 0.00 0.00 0.00 99 1017.4
20260905113051 23 95 0.0 0.0 0.00 0.00 0.00 99 1017.3
20260905112546 23 95 1.6 3.2 0.00 0.00 0.00 99 1017.4
20260905112041 23 95 3.2 3.2 0.00 0.00 0.00 99 1017.2
20260905111537 23 95 3.2 3.2 0.00 0.00 0.00 99 1017.4
20260905111036 23 94 0.0 0.0 0.00 0.00 0.00 99 1017.2
20260905110535 23 94 0.0 0.0 0.00 0.00 0.00 99 1017.3
20260905110030 23 94 0.0 0.0 0.00 0.00 0.00 99 1017.3
20260905105530 23 94 0.0 1.6 0.00 0.00 0.00 99 1017.2
20260905105029 23 94 0.0 0.0 0.00 0.00 0.00 99 1017.2